This is the latest recevied weather packets stored in our database for station/object KC8BSD. If no packets are shown the sender has not sent any weather packets the latest 10 day(s).
| Time | Temp. | Humidity | Pressure | Rain* | Wind** | Luminosity | Snow |
|---|---|---|---|---|---|---|---|
| 1777813191 | 11.11° C | 51% | 1014.8 hPa | 0 mm | - | 263 W/m² | - |
| 1777812889 | 10.56° C | 51% | 1014.9 hPa | 0 mm | - | 239 W/m² | - |
| 1777812585 | 10.56° C | 53% | 1015 hPa | 0 mm | - | 232 W/m² | - |
| 1777812283 | 10° C | 53% | 1014.9 hPa | 0 mm | - | 239 W/m² | - |
| 1777811981 | 10° C | 54% | 1014.9 hPa | 0 mm | - | 203 W/m² | - |
| 1777811679 | 9.44° C | 55% | 1014.9 hPa | 0 mm | - | 194 W/m² | - |
| 1777811374 | 8.89° C | 56% | 1015.1 hPa | 0 mm | - | 178 W/m² | - |
| 1777811072 | 8.33° C | 56% | 1015 hPa | 0 mm | - | 172 W/m² | - |
| 1777810769 | 8.33° C | 59% | 1015 hPa | 0 mm | - | 150 W/m² | - |
| 1777810466 | 7.78° C | 59% | 1014.9 hPa | 0 mm | - | 144 W/m² | - |
| 1777810162 | 7.22° C | 60% | 1015 hPa | 0 mm | - | 129 W/m² | - |
| 1777809859 | 7.22° C | 61% | 1014.8 hPa | 0 mm | - | 122 W/m² | - |
| 1777809557 | 6.67° C | 62% | 1014.9 hPa | 0 mm | - | 102 W/m² | - |
| 1777809254 | 6.11° C | 62% | 1015 hPa | 0 mm | - | 95 W/m² | - |
| 1777808952 | 6.11° C | 62% | 1014.9 hPa | 0 mm | - | 82 W/m² | - |
| 1777808648 | 5.56° C | 64% | 1014.8 hPa | 0 mm | - | 71 W/m² | - |
| 1777808345 | 5° C | 65% | 1015.1 hPa | 0 mm | - | 53 W/m² | - |
| 1777808039 | 5° C | 65% | 1014.9 hPa | 0 mm | - | 46 W/m² | - |
| 1777807735 | 4.44° C | 65% | 1015 hPa | 0 mm | - | 43 W/m² | - |
| 1777807433 | 3.89° C | 67% | 1014.9 hPa | 0 mm | - | 37 W/m² | - |
| 1777807128 | 3.33° C | 69% | 1014.8 hPa | 0 mm | - | 32 W/m² | - |
| 1777806826 | 3.33° C | 69% | 1015 hPa | 0 mm | - | 26 W/m² | - |
| 1777806522 | 2.78° C | 70% | 1015 hPa | 0 mm | - | 23 W/m² | - |
| 1777806218 | 2.78° C | 70% | 1014.9 hPa | 0 mm | - | 20 W/m² | - |
| 1777805915 | 2.22° C | 71% | 1014.9 hPa | 0 mm | - | 17 W/m² | - |
* Rain latest hour (hover to see other rain measurements)
** Current wind speed in m/s (hover to see current wind gust speed)